NOAA 16

Satellite information

Favourite Embed

Satellite Type and Status

PAYLOADIN ORBIT

Key statistics

Satellite NOAA 16 at a glance.

Uptime

9156

Days in orbit

Revolutions

≈ 14.1

Per day

Orbit

SSO

Sun Synchronous Orbit

Inclination

98.5

Latest

Satellite identification and parameters

Extended collection of information and parameters for NOAA 16.

Object identification

Identified? True

Debris? False

Object name: NOAA 16

International designator: 2000-055A

Object number (NORAD): 26536

Object ID (CCSDS): 26536

Country: UNITED STATES OF AMERICA (US)

Current information (Y/N): Y

RCS size: LARGE

Orbital parameters

Period: 101.85 minutes

Inclination: 98.4813 deg

SMA: 7224.383 km

Apoapsis: 852.937 km

Periapsis: 839.558 km

RAAN: 310.888 deg

Eccentricy: 0.00092598

Argument of periapsis: 284.5457 deg

Mean anomaly: 75.4689 deg

Mean motion: 14.13844449 rev/day

Mean motion (dot): 0.00000157 rev/day2

B* drag term: 0.00010435968 1/REarth

Two-line elements (TLE)

Creation date: Oct. 16, 2025, 2:37 a.m.

Reference frame: TEME

Reference center: EARTH

Epoch: Oct. 15, 2025, 9:04 p.m. UTC

TLE line 0: 0 NOAA 16

TLE line 1: 1 26536U 00055A 25288.87824896 .00000157 00000-0 10436-3 0 9999

TLE line 2: 2 26536 98.4813 310.8880 0009260 284.5457 75.4689 14.13844449589202

Live tracking on map

Real-time ground track for satellite NOAA 16.

In-orbit conjunctions

A list of the most updated potential collisions computed for object NOAA 16.

Target Orbit TCA Probability of collision Miss distance Type
FENGYUN 1C DEB SSO 2025-10-13 04:05:41 0.0001020064 212.0 (m) DEBRIS
COSMOS 1275 DEB LEO 2025-09-27 18:58:15 0.0001003851 490.0 (m) DEBRIS
CZ-6A DEB SSO 2024-10-14 09:37:31 0.0006208965 350.0 (m) DEBRIS
NOAA 16 DEB SSO 2024-05-26 17:22:34 0.0001197683 653.0 (m) DEBRIS

Associated space launch

The NOAA K, L and M POES satellites begin the fifth generation of improved environmental monitoring in support of NOAA missions. The instrument payload has significant improvements and additions/deletions. The instrument changes have effected the spacecraft subsystems and data formats.

NOAA 16 was lifted into orbit during the mission ‘Titan II SLV | NOAA 16’, on board a Titan II SLV space rocket.

The launch took place on Sept. 21, 2000, 10:22 a.m. from Space Launch Complex 4W.

For more information about the launch, click the button.

Launch to space Titan II SLV | NOAA 16
Titan II SLV | NOAA 16

Agency: N/A

Status: Launch Successful

Launch date: Sept. 21, 2000, 10:22 a.m. UTC

Rocket: Titan II SLV

Launch pad: Space Launch Complex 4W

Location: Vandenberg SFB, CA, USA

...

Latest news about this satellite

There are no fresh news available about this satellite. Check back as we update our databases every day.


Newsletter sign-up

Weekly statistics, charts and insights to help you stay on top of the space industry.